Location: Bidart
(43.4376°N, 1.5913°W)
Time: 07:59:40
(UTC+00:00)

USA 229 DEB - Pass Details

Date: 16 April 2026
Orbit: 844 x 1364 km, 63.4° (Epoch: 10 January)

Event Time Altitude Azimuth Distance (km) Brightness Sun altitude
Rises 22:07:33 0° 314° (NW) 3,792 7.7 -29.8°
Reaches altitude 10° 22:11:22 10° 336° (NNW) 2,946 6.9 -30.2°
Maximum altitude 22:15:30 16° 13° (NNE) 2,632 6.2 -30.6°
Drops below altitude 10° 22:19:54 10° 48° (NE) 3,171 6.3 -31.0°
Sets 22:24:16 0° 69° (ENE) 4,235 6.7 -31.4°
